Location: Guayaquil
(2.1667°S, 79.9000°W)
Time: 14:37:59
(UTC-05:00)

Hubble Space Telescope - Visible Passes

Search period start: 26 January 2021 00:00
Search period end: 05 February 2021 00:00
Orbit: 536 x 539 km, 28.5° (Epoch: 25 January)

Date Brightness Start Highest point End Pass type
(mag) Time Alt. Az. Time Alt. Az. Time Alt. Az.
29 Jan 2.7 19:34:51 10° N 19:36:52 14° NNE 19:36:52 14° NNE visible
30 Jan 2.3 19:23:19 10° NNW 19:26:21 20° NNE 19:27:36 17° NE visible
31 Jan 1.9 19:12:02 10° NNW 19:15:32 27° NNE 19:18:24 13° E visible
31 Jan 3.4 20:52:42 10° WNW 20:53:48 17° W 20:53:48 17° W visible
01 Feb 3.8 05:27:12 10° S 05:28:13 11° SSE 05:29:14 10° SE visible
01 Feb 1.4 19:00:53 10° NW 19:04:43 37° NNE 19:08:34 10° E visible
01 Feb 2.8 20:42:08 10° W 20:44:39 27° WSW 20:44:39 27° WSW visible
02 Feb 3.5 05:15:10 10° S 05:17:29 14° SSE 05:19:46 10° ESE visible
02 Feb 2.8 20:31:42 10° W 20:35:02 23° SSW 20:35:31 23° SSW visible
03 Feb 3.2 05:03:42 10° SSW 05:06:42 19° SSE 05:09:42 10° ESE visible
03 Feb 3.3 20:21:27 10° WSW 20:24:15 17° SSW 20:26:18 13° S visible
04 Feb 2.7 04:53:31 16° SSW 04:55:55 26° SSE 04:59:23 10° E visible
04 Feb 3.6 20:11:30 10° SW 20:13:29 13° SSW 20:15:29 10° S visible
